Time,TemperatureF,DewpointF,PressureIn,WindDirection,WindDirectionDegrees,WindSpeedMPH,WindSpeedGustMPH,Humidity,HourlyPrecipIn,Conditions,Clouds,dailyrainin,SoftwareType,DateUTC
2013-05-09 00:02:00,42.4,40.6,30.17,SSW,207,0.0,0.0,93,0.00,,,0.00,meteohub,2013-05-09 07:02:00,
2013-05-09 00:07:00,42.4,40.6,30.17,SSW,207,0.0,0.0,93,0.00,,,0.00,meteohub,2013-05-09 07:07:00,
2013-05-09 00:12:00,42.6,40.8,30.17,SSW,207,0.0,0.0,93,0.00,,,0.00,meteohub,2013-05-09 07:12:00,
2013-05-09 00:17:00,42.6,40.8,30.17,SSW,207,0.0,0.0,93,0.00,,,0.00,meteohub,2013-05-09 07:17:00,
2013-05-09 00:22:00,42.8,41.0,30.17,SSW,207,0.0,0.0,93,0.00,,,0.00,meteohub,2013-05-09 07:22:00,
2013-05-09 00:27:00,42.8,40.6,30.17,SSW,207,0.0,0.0,92,0.00,,,0.00,meteohub,2013-05-09 07:27:00,
2013-05-09 00:32:00,42.6,40.5,30.17,SSW,207,0.0,0.0,92,0.00,,,0.00,meteohub,2013-05-09 07:32:00,
2013-05-09 00:37:00,42.6,40.5,30.17,SSW,207,0.0,0.0,92,0.00,,,0.00,meteohub,2013-05-09 07:37:00,
2013-05-09 00:42:00,42.6,40.5,30.17,SSW,207,0.0,0.0,92,0.00,,,0.00,meteohub,2013-05-09 07:42:00,
2013-05-09 00:47:00,42.6,40.5,30.17,SSW,207,0.0,0.0,92,0.00,,,0.00,meteohub,2013-05-09 07:47:00,
2013-05-09 00:52:00,42.6,40.5,30.17,SSW,207,0.0,0.0,92,0.00,,,0.00,meteohub,2013-05-09 07:52:00,
2013-05-09 00:57:00,43.0,40.5,30.17,SSW,207,0.0,0.0,91,0.00,,,0.00,meteohub,2013-05-09 07:57:00,
2013-05-09 01:02:00,43.0,40.5,30.17,SSW,207,0.0,0.0,91,0.00,,,0.00,meteohub,2013-05-09 08:02:00,
2013-05-09 01:07:00,43.0,40.5,30.17,SSW,206,0.0,0.0,91,0.00,,,0.00,meteohub,2013-05-09 08:07:00,
2013-05-09 01:12:00,42.8,40.3,30.17,SSW,205,0.0,0.0,91,0.00,,,0.00,meteohub,2013-05-09 08:12:00,
2013-05-09 01:17:00,43.0,40.5,30.16,SSW,207,0.0,0.0,91,0.00,,,0.00,meteohub,2013-05-09 08:17:00,
2013-05-09 01:22:00,43.0,40.5,30.16,SSW,206,0.0,0.0,91,0.00,,,0.00,meteohub,2013-05-09 08:22:00,
2013-05-09 01:27:00,43.0,40.5,30.16,SSW,206,0.0,0.0,91,0.00,,,0.00,meteohub,2013-05-09 08:27:00,
2013-05-09 01:32:00,43.2,40.5,30.16,SSW,205,0.0,0.0,90,0.00,,,0.00,meteohub,2013-05-09 08:32:00,
2013-05-09 01:37:00,43.0,40.3,30.16,SSW,206,0.0,0.0,90,0.00,,,0.00,meteohub,2013-05-09 08:37:00,
2013-05-09 01:42:00,43.2,40.5,30.16,SSW,205,0.0,0.0,90,0.00,,,0.00,meteohub,2013-05-09 08:42:00,
2013-05-09 01:47:00,43.2,40.5,30.16,SSW,206,0.0,0.0,90,0.00,,,0.00,meteohub,2013-05-09 08:47:00,
2013-05-09 01:52:00,43.2,40.5,30.16,SSW,205,0.0,0.0,90,0.00,,,0.00,meteohub,2013-05-09 08:52:00,
2013-05-09 01:57:00,43.2,40.5,30.16,SSW,205,0.0,0.0,90,0.00,,,0.00,meteohub,2013-05-09 08:57:00,
2013-05-09 02:02:00,43.3,40.3,30.15,SSW,205,0.0,0.0,89,0.00,,,0.00,meteohub,2013-05-09 09:02:00,
2013-05-09 02:07:00,43.3,40.3,30.15,SSW,206,0.0,0.0,89,0.00,,,0.00,meteohub,2013-05-09 09:07:00,
2013-05-09 02:12:00,43.3,40.3,30.15,SSW,206,0.0,0.0,89,0.00,,,0.00,meteohub,2013-05-09 09:12:00,
2013-05-09 02:17:00,43.3,40.3,30.15,SSW,205,0.0,0.0,89,0.00,,,0.00,meteohub,2013-05-09 09:17:00,
2013-05-09 02:22:00,43.3,40.3,30.15,SSW,206,0.0,0.0,89,0.00,,,0.00,meteohub,2013-05-09 09:22:00,
2013-05-09 02:27:00,43.2,40.1,30.15,SSW,206,0.0,0.0,89,0.00,,,0.00,meteohub,2013-05-09 09:27:00,
2013-05-09 02:32:00,43.0,39.9,30.15,SSW,206,0.0,0.0,89,0.00,,,0.00,meteohub,2013-05-09 09:32:00,
2013-05-09 02:37:00,42.8,40.1,30.15,SSW,206,0.0,0.0,90,0.00,,,0.00,meteohub,2013-05-09 09:37:00,
2013-05-09 02:42:00,42.6,39.9,30.15,SSW,205,0.0,0.0,90,0.00,,,0.00,meteohub,2013-05-09 09:42:00,
2013-05-09 02:47:00,42.6,39.9,30.15,SSW,206,0.0,0.0,90,0.00,,,0.00,meteohub,2013-05-09 09:47:00,
2013-05-09 02:52:00,42.4,39.7,30.15,SSW,207,0.0,0.0,90,0.00,,,0.00,meteohub,2013-05-09 09:52:00,
2013-05-09 02:57:00,42.4,39.7,30.15,SSW,205,0.0,0.0,90,0.00,,,0.00,meteohub,2013-05-09 09:57:00,
2013-05-09 03:02:00,42.4,39.7,30.14,SSW,205,0.0,0.0,90,0.00,,,0.00,meteohub,2013-05-09 10:02:00,
2013-05-09 03:07:00,42.4,39.7,30.14,SSW,205,0.0,0.0,90,0.00,,,0.00,meteohub,2013-05-09 10:07:00,
2013-05-09 03:12:00,42.4,39.7,30.14,SSW,206,0.0,0.0,90,0.00,,,0.00,meteohub,2013-05-09 10:12:00,
2013-05-09 03:17:00,42.4,39.7,30.14,SSW,205,0.0,0.0,90,0.00,,,0.00,meteohub,2013-05-09 10:17:00,
2013-05-09 03:22:00,42.4,39.7,30.14,SSW,205,0.0,0.0,90,0.00,,,0.00,meteohub,2013-05-09 10:22:00,
2013-05-09 03:27:00,42.4,39.4,30.14,SSW,205,0.0,0.0,89,0.00,,,0.00,meteohub,2013-05-09 10:27:00,
2013-05-09 03:32:00,42.3,39.6,30.14,SSW,205,0.0,0.0,90,0.00,,,0.00,meteohub,2013-05-09 10:32:00,
2013-05-09 03:37:00,42.3,39.6,30.14,SSW,205,0.0,0.0,90,0.00,,,0.00,meteohub,2013-05-09 10:37:00,
2013-05-09 03:42:00,42.3,39.6,30.14,SSW,206,0.0,0.0,90,0.00,,,0.00,meteohub,2013-05-09 10:42:00,
2013-05-09 03:47:00,42.3,39.6,30.14,SSW,203,0.0,0.0,90,0.00,,,0.00,meteohub,2013-05-09 10:47:00,
2013-05-09 03:52:00,42.3,39.6,30.14,SSW,203,0.0,0.0,90,0.00,,,0.00,meteohub,2013-05-09 10:52:00,
2013-05-09 03:57:00,42.1,39.4,30.14,SSW,203,0.0,0.0,90,0.00,,,0.00,meteohub,2013-05-09 10:57:00,
2013-05-09 04:02:00,42.1,39.6,30.14,SSW,205,0.0,0.0,91,0.00,,,0.00,meteohub,2013-05-09 11:02:00,
2013-05-09 04:07:00,42.3,39.7,30.14,SSW,205,0.0,0.0,91,0.00,,,0.00,meteohub,2013-05-09 11:07:00,
2013-05-09 04:12:00,42.3,39.7,30.13,SSW,205,0.0,0.0,91,0.00,,,0.00,meteohub,2013-05-09 11:12:00,
2013-05-09 04:17:00,42.1,39.6,30.13,SSW,205,0.0,0.0,91,0.00,,,0.00,meteohub,2013-05-09 11:17:00,
2013-05-09 04:22:00,42.3,39.7,30.13,SSW,205,0.0,0.0,91,0.00,,,0.00,meteohub,2013-05-09 11:22:00,
2013-05-09 04:27:00,42.4,40.3,30.13,SSW,205,0.0,0.0,92,0.00,,,0.00,meteohub,2013-05-09 11:27:00,
2013-05-09 04:32:00,42.6,40.1,30.13,SSW,205,0.0,0.0,91,0.00,,,0.00,meteohub,2013-05-09 11:32:00,
2013-05-09 04:37:00,42.8,40.3,30.13,SSW,205,0.0,0.0,91,0.00,,,0.00,meteohub,2013-05-09 11:37:00,
2013-05-09 04:42:00,42.6,39.9,30.13,SSW,205,0.0,0.0,90,0.00,,,0.00,meteohub,2013-05-09 11:42:00,
2013-05-09 04:47:00,42.4,39.9,30.13,SSW,205,0.0,0.0,91,0.00,,,0.00,meteohub,2013-05-09 11:47:00,
2013-05-09 04:52:00,42.3,39.7,30.13,SSW,205,0.0,0.0,91,0.00,,,0.00,meteohub,2013-05-09 11:52:00,
2013-05-09 04:57:00,42.1,39.6,30.13,SSW,205,0.0,0.0,91,0.00,,,0.00,meteohub,2013-05-09 11:57:00,
2013-05-09 05:02:00,42.1,39.6,30.13,SSW,205,0.0,0.0,91,0.00,,,0.00,meteohub,2013-05-09 12:02:00,
2013-05-09 05:07:00,41.9,39.7,30.13,SSW,205,0.0,0.0,92,0.00,,,0.00,meteohub,2013-05-09 12:07:00,
2013-05-09 05:12:00,41.9,39.7,30.13,SSW,205,0.0,0.0,92,0.00,,,0.00,meteohub,2013-05-09 12:12:00,
2013-05-09 05:17:00,41.9,39.7,30.13,SSW,205,0.0,0.0,92,0.00,,,0.00,meteohub,2013-05-09 12:17:00,
2013-05-09 05:22:00,41.9,39.7,30.13,SSW,205,0.0,0.0,92,0.00,,,0.00,meteohub,2013-05-09 12:22:00,
2013-05-09 05:27:00,41.7,39.6,30.13,SSW,205,0.0,0.0,92,0.00,,,0.00,meteohub,2013-05-09 12:27:00,
2013-05-09 05:32:00,41.7,39.6,30.13,SSW,205,0.0,0.0,92,0.00,,,0.00,meteohub,2013-05-09 12:32:00,
2013-05-09 05:37:00,41.7,39.6,30.13,SSW,205,0.0,0.0,92,0.00,,,0.00,meteohub,2013-05-09 12:37:00,
2013-05-09 05:42:00,41.5,39.7,30.13,SSW,205,0.0,0.0,93,0.01,,,0.01,meteohub,2013-05-09 12:42:00,
2013-05-09 05:47:00,41.5,39.7,30.13,SSW,205,0.0,0.0,93,0.01,,,0.01,meteohub,2013-05-09 12:47:00,
2013-05-09 05:52:00,41.5,39.7,30.13,SSW,205,0.0,0.0,93,0.01,,,0.01,meteohub,2013-05-09 12:52:00,
2013-05-09 05:57:00,41.5,39.7,30.13,SSW,205,0.0,0.0,93,0.01,,,0.01,meteohub,2013-05-09 12:57:00,
2013-05-09 06:02:00,41.5,39.7,30.13,SSW,205,0.0,0.0,93,0.01,,,0.01,meteohub,2013-05-09 13:02:00,
2013-05-09 06:07:00,41.5,39.7,30.13,SSW,205,0.0,0.0,93,0.01,,,0.01,meteohub,2013-05-09 13:07:00,
2013-05-09 06:12:00,41.7,40.1,30.13,SSW,205,0.0,0.0,94,0.01,,,0.01,meteohub,2013-05-09 13:12:00,
2013-05-09 06:17:00,41.9,40.1,30.13,SSW,205,0.0,0.0,93,0.01,,,0.01,meteohub,2013-05-09 13:17:00,
2013-05-09 06:22:00,42.1,40.3,30.13,SSW,205,0.0,0.0,93,0.01,,,0.01,meteohub,2013-05-09 13:22:00,
2013-05-09 06:27:00,42.1,40.3,30.14,SSW,205,0.0,0.0,93,0.01,,,0.01,meteohub,2013-05-09 13:27:00,
2013-05-09 06:32:00,42.1,40.3,30.13,SSW,205,0.0,0.0,93,0.01,,,0.01,meteohub,2013-05-09 13:32:00,
2013-05-09 06:37:00,42.1,40.3,30.13,SSW,205,0.0,0.0,93,0.01,,,0.01,meteohub,2013-05-09 13:37:00,
2013-05-09 06:42:00,42.4,40.6,30.14,SSW,205,0.0,0.0,93,0.00,,,0.01,meteohub,2013-05-09 13:42:00,
2013-05-09 06:47:00,43.2,41.0,30.13,SSW,205,0.0,0.0,92,0.00,,,0.01,meteohub,2013-05-09 13:47:00,
2013-05-09 06:52:00,43.9,41.4,30.14,SSW,203,0.0,0.0,91,0.00,,,0.01,meteohub,2013-05-09 13:52:00,
2013-05-09 06:57:00,44.4,41.7,30.14,SSW,201,0.0,0.0,90,0.00,,,0.01,meteohub,2013-05-09 13:57:00,
2013-05-09 07:02:00,45.0,41.9,30.13,SSW,203,0.0,0.0,89,0.00,,,0.01,meteohub,2013-05-09 14:02:00,
2013-05-09 07:07:00,45.3,42.3,30.14,ESE,106,0.0,0.0,89,0.00,,,0.01,meteohub,2013-05-09 14:07:00,
2013-05-09 07:12:00,45.7,42.1,30.14,ENE,58,0.0,0.0,87,0.00,,,0.01,meteohub,2013-05-09 14:12:00,
2013-05-09 07:17:00,46.0,42.1,30.14,ENE,60,0.0,0.0,86,0.00,,,0.01,meteohub,2013-05-09 14:17:00,
2013-05-09 07:22:00,46.4,42.8,30.14,ENE,58,0.0,0.0,87,0.00,,,0.01,meteohub,2013-05-09 14:22:00,
2013-05-09 07:27:00,46.8,43.2,30.14,ENE,68,0.0,0.0,87,0.00,,,0.01,meteohub,2013-05-09 14:27:00,
2013-05-09 07:32:00,46.9,43.0,30.14,NNE,30,2.0,2.0,86,0.00,,,0.01,meteohub,2013-05-09 14:32:00,
2013-05-09 07:37:00,47.1,42.8,30.14,NE,48,0.0,2.0,85,0.00,,,0.01,meteohub,2013-05-09 14:37:00,
2013-05-09 07:42:00,47.8,43.5,30.14,North,9,0.0,3.0,85,0.00,,,0.01,meteohub,2013-05-09 14:42:00,
2013-05-09 07:47:00,48.6,44.2,30.14,NNE,17,1.0,3.0,85,0.00,,,0.01,meteohub,2013-05-09 14:47:00,
2013-05-09 07:52:00,48.7,44.1,30.14,NE,56,1.0,3.0,84,0.00,,,0.01,meteohub,2013-05-09 14:52:00,
2013-05-09 07:57:00,49.5,44.6,30.14,NE,39,1.0,3.0,83,0.00,,,0.01,meteohub,2013-05-09 14:57:00,
2013-05-09 08:02:00,49.8,44.2,30.14,ENE,62,0.0,3.0,81,0.00,,,0.01,meteohub,2013-05-09 15:02:00,
2013-05-09 08:07:00,50.2,44.6,30.14,East,98,0.0,4.0,81,0.00,,,0.01,meteohub,2013-05-09 15:07:00,
2013-05-09 08:12:00,50.5,45.0,30.14,NE,46,0.0,4.0,81,0.00,,,0.01,meteohub,2013-05-09 15:12:00,
2013-05-09 08:17:00,50.5,45.0,30.14,North,1,0.0,2.0,81,0.00,,,0.01,meteohub,2013-05-09 15:17:00,
2013-05-09 08:22:00,50.9,44.6,30.14,NNE,31,0.0,0.0,79,0.00,,,0.01,meteohub,2013-05-09 15:22:00,
2013-05-09 08:27:00,51.6,43.9,30.14,NNE,30,4.0,0.0,75,0.00,,,0.01,meteohub,2013-05-09 15:27:00,
2013-05-09 08:32:00,51.6,44.2,30.14,NE,46,3.0,5.0,76,0.00,,,0.01,meteohub,2013-05-09 15:32:00,
2013-05-09 08:37:00,52.2,43.7,30.14,North,355,3.0,5.0,73,0.00,,,0.01,meteohub,2013-05-09 15:37:00,
2013-05-09 08:42:00,52.3,44.6,30.14,NE,48,4.0,5.0,75,0.00,,,0.01,meteohub,2013-05-09 15:42:00,
2013-05-09 08:47:00,52.2,43.7,30.14,ENE,76,2.0,6.0,73,0.00,,,0.01,meteohub,2013-05-09 15:47:00,
2013-05-09 08:52:00,52.9,44.1,30.14,WNW,284,4.0,6.0,72,0.00,,,0.01,meteohub,2013-05-09 15:52:00,
2013-05-09 08:57:00,53.1,45.0,30.14,NE,49,1.0,6.0,74,0.00,,,0.01,meteohub,2013-05-09 15:57:00,
2013-05-09 09:02:00,53.8,44.2,30.14,SSW,210,2.0,5.0,70,0.00,,,0.01,meteohub,2013-05-09 16:02:00,
2013-05-09 09:12:00,53.2,44.4,30.14,NNE,15,0.0,6.0,72,0.00,,,0.01,meteohub,2013-05-09 16:12:00,
2013-05-09 09:17:00,53.8,44.6,30.13,NNE,26,4.0,6.0,71,0.00,,,0.01,meteohub,2013-05-09 16:17:00,
2013-05-09 09:22:00,53.8,43.9,30.14,NW,309,2.0,5.0,69,0.00,,,0.01,meteohub,2013-05-09 16:22:00,
2013-05-09 09:27:00,54.0,44.1,30.14,WNW,291,3.0,6.0,69,0.00,,,0.01,meteohub,2013-05-09 16:27:00,
2013-05-09 09:32:00,53.4,43.2,30.13,WNW,291,0.0,6.0,68,0.00,,,0.01,meteohub,2013-05-09 16:32:00,
2013-05-09 09:37:00,54.0,44.8,30.13,NNE,27,1.0,7.0,71,0.00,,,0.01,meteohub,2013-05-09 16:37:00,
2013-05-09 09:42:00,54.7,43.9,30.13,West,266,0.0,7.0,67,0.00,,,0.01,meteohub,2013-05-09 16:42:00,
2013-05-09 09:47:00,55.2,44.1,30.13,NNE,30,3.0,7.0,66,0.00,,,0.01,meteohub,2013-05-09 16:47:00,
2013-05-09 09:52:00,55.9,43.9,30.13,NW,314,2.0,5.0,64,0.00,,,0.01,meteohub,2013-05-09 16:52:00,
2013-05-09 09:57:00,55.8,43.7,30.14,NW,314,3.0,7.0,64,0.00,,,0.01,meteohub,2013-05-09 16:57:00,
2013-05-09 10:02:00,56.1,44.6,30.13,NE,56,4.0,7.0,65,0.00,,,0.01,meteohub,2013-05-09 17:02:00,
2013-05-09 10:12:00,56.1,43.3,30.13,NNE,15,0.0,6.0,62,0.00,,,0.01,meteohub,2013-05-09 17:12:00,
2013-05-09 10:17:00,56.8,43.9,30.14,NNE,22,5.0,7.0,62,0.00,,,0.01,meteohub,2013-05-09 17:17:00,
2013-05-09 10:22:00,57.6,45.1,30.13,NE,45,2.0,7.0,63,0.00,,,0.01,meteohub,2013-05-09 17:22:00,
2013-05-09 10:27:00,57.7,44.8,30.13,South,173,0.0,7.0,62,0.00,,,0.01,meteohub,2013-05-09 17:27:00,
2013-05-09 10:32:00,57.7,42.6,30.14,WNW,290,3.0,6.0,57,0.00,,,0.01,meteohub,2013-05-09 17:32:00,
2013-05-09 10:37:00,57.2,43.9,30.14,NNE,17,4.0,12.0,61,0.00,,,0.01,meteohub,2013-05-09 17:37:00,
2013-05-09 10:42:00,56.8,43.5,30.14,NE,34,3.0,12.0,61,0.00,,,0.01,meteohub,2013-05-09 17:42:00,
2013-05-09 10:47:00,56.8,42.6,30.14,ENE,74,2.0,9.0,59,0.00,,,0.01,meteohub,2013-05-09 17:47:00,
2013-05-09 10:52:00,57.9,42.3,30.14,NNE,12,3.0,7.0,56,0.00,,,0.01,meteohub,2013-05-09 17:52:00,
2013-05-09 10:57:00,58.3,42.3,30.14,NW,323,1.0,7.0,55,0.00,,,0.01,meteohub,2013-05-09 17:57:00,
2013-05-09 11:02:00,58.1,43.9,30.14,WNW,282,1.0,7.0,59,0.00,,,0.01,meteohub,2013-05-09 18:02:00,
2013-05-09 11:07:00,59.2,43.5,30.14,North,349,3.0,7.0,56,0.00,,,0.01,meteohub,2013-05-09 18:07:00,
2013-05-09 11:12:00,60.1,44.4,30.14,NW,311,4.0,7.0,56,0.00,,,0.01,meteohub,2013-05-09 18:12:00,
2013-05-09 11:17:00,59.7,42.6,30.14,West,274,5.0,8.0,53,0.00,,,0.01,meteohub,2013-05-09 18:17:00,
2013-05-09 11:22:00,59.7,41.0,30.13,NW,308,1.0,8.0,50,0.00,,,0.01,meteohub,2013-05-09 18:22:00,
2013-05-09 11:27:00,59.5,42.4,30.13,NNE,19,0.0,9.0,53,0.00,,,0.01,meteohub,2013-05-09 18:27:00,
2013-05-09 11:32:00,59.7,43.0,30.13,NNE,27,1.0,9.0,54,0.00,,,0.01,meteohub,2013-05-09 18:32:00,
2013-05-09 11:37:00,60.1,41.9,30.13,WNW,282,2.0,9.0,51,0.00,,,0.01,meteohub,2013-05-09 18:37:00,
2013-05-09 11:42:00,60.1,40.3,30.13,NE,37,2.0,8.0,48,0.00,,,0.01,meteohub,2013-05-09 18:42:00,
2013-05-09 11:47:00,60.3,42.1,30.13,West,273,6.0,8.0,51,0.00,,,0.01,meteohub,2013-05-09 18:47:00,
2013-05-09 11:52:00,59.5,41.4,30.13,WNW,293,6.0,10.0,51,0.00,,,0.01,meteohub,2013-05-09 18:52:00,
2013-05-09 11:57:00,59.9,41.7,30.13,NE,49,3.0,10.0,51,0.00,,,0.01,meteohub,2013-05-09 18:57:00,
2013-05-09 12:02:00,61.3,41.5,30.13,NNE,30,1.0,10.0,48,0.00,,,0.01,meteohub,2013-05-09 19:02:00,
2013-05-09 12:07:00,62.1,41.0,30.13,South,191,0.0,9.0,46,0.00,,,0.01,meteohub,2013-05-09 19:07:00,
2013-05-09 12:12:00,62.1,41.0,30.13,West,276,1.0,8.0,46,0.00,,,0.01,meteohub,2013-05-09 19:12:00,
2013-05-09 12:17:00,62.2,40.6,30.13,SSE,150,0.0,5.0,45,0.00,,,0.01,meteohub,2013-05-09 19:17:00,
2013-05-09 12:22:00,62.4,40.8,30.13,West,280,0.0,5.0,45,0.00,,,0.01,meteohub,2013-05-09 19:22:00,
2013-05-09 12:27:00,63.3,41.5,30.12,NE,39,1.0,6.0,45,0.00,,,0.01,meteohub,2013-05-09 19:27:00,
2013-05-09 12:32:00,62.6,39.2,30.12,NNW,332,4.0,7.0,42,0.00,,,0.01,meteohub,2013-05-09 19:32:00,
2013-05-09 12:37:00,61.9,40.8,30.12,West,275,1.0,7.0,46,0.00,,,0.01,meteohub,2013-05-09 19:37:00,
2013-05-09 12:42:00,61.9,40.8,30.12,NE,51,2.0,10.0,46,0.00,,,0.01,meteohub,2013-05-09 19:42:00,
2013-05-09 12:47:00,62.8,40.5,30.12,NNE,13,3.0,10.0,44,0.00,,,0.01,meteohub,2013-05-09 19:47:00,
2013-05-09 12:52:00,62.6,41.0,30.12,SW,214,0.0,6.0,45,0.00,,,0.01,meteohub,2013-05-09 19:52:00,
2013-05-09 12:57:00,62.1,41.0,30.12,East,98,1.0,6.0,46,0.00,,,0.01,meteohub,2013-05-09 19:57:00,
2013-05-09 13:02:00,62.4,39.0,30.12,East,99,0.0,4.0,42,0.00,,,0.01,meteohub,2013-05-09 20:02:00,
2013-05-09 13:07:00,62.2,39.4,30.12,East,90,2.0,4.0,43,0.00,,,0.01,meteohub,2013-05-09 20:07:00,
2013-05-09 13:12:00,62.2,38.3,30.12,NE,48,0.0,5.0,41,0.00,,,0.01,meteohub,2013-05-09 20:12:00,
2013-05-09 13:17:00,62.8,39.4,30.12,ESE,103,2.0,5.0,42,0.00,,,0.01,meteohub,2013-05-09 20:17:00,
2013-05-09 13:22:00,61.2,48.4,30.12,ESE,108,0.0,11.0,63,0.00,,,0.01,meteohub,2013-05-09 20:22:00,
2013-05-09 13:27:00,59.5,46.6,30.11,East,91,4.0,11.0,62,0.00,,,0.01,meteohub,2013-05-09 20:27:00,
2013-05-09 13:32:00,59.9,48.6,30.11,East,94,5.0,11.0,66,0.00,,,0.01,meteohub,2013-05-09 20:32:00,
2013-05-09 13:37:00,59.7,48.0,30.11,East,90,5.0,10.0,65,0.00,,,0.01,meteohub,2013-05-09 20:37:00,
2013-05-09 13:42:00,58.8,47.5,30.12,East,98,6.0,13.0,66,0.00,,,0.01,meteohub,2013-05-09 20:42:00,
2013-05-09 13:47:00,59.2,47.8,30.12,SE,125,1.0,13.0,66,0.00,,,0.01,meteohub,2013-05-09 20:47:00,
2013-05-09 13:52:00,58.8,48.2,30.11,ESE,122,4.0,13.0,68,0.00,,,0.01,meteohub,2013-05-09 20:52:00,
2013-05-09 13:57:00,58.8,47.8,30.12,East,94,3.0,13.0,67,0.00,,,0.01,meteohub,2013-05-09 20:57:00,
2013-05-09 14:02:00,58.5,48.0,30.11,SW,219,1.0,13.0,68,0.00,,,0.01,meteohub,2013-05-09 21:02:00,
2013-05-09 14:07:00,59.2,48.2,30.11,SE,135,2.0,11.0,67,0.00,,,0.01,meteohub,2013-05-09 21:07:00,
2013-05-09 14:12:00,58.5,48.0,30.11,SE,142,11.0,12.0,68,0.00,,,0.01,meteohub,2013-05-09 21:12:00,
2013-05-09 14:17:00,57.6,47.8,30.11,SE,134,6.0,12.0,70,0.00,,,0.01,meteohub,2013-05-09 21:17:00,
2013-05-09 14:22:00,57.4,47.7,30.11,SE,135,2.0,13.0,70,0.00,,,0.01,meteohub,2013-05-09 21:22:00,
2013-05-09 14:27:00,58.3,48.2,30.11,NNE,15,3.0,13.0,69,0.00,,,0.01,meteohub,2013-05-09 21:27:00,
2013-05-09 14:32:00,57.9,47.8,30.11,ENE,72,7.0,13.0,69,0.00,,,0.01,meteohub,2013-05-09 21:32:00,
2013-05-09 14:37:00,58.3,47.8,30.10,ESE,114,4.0,12.0,68,0.00,,,0.01,meteohub,2013-05-09 21:37:00,
2013-05-09 14:42:00,57.6,47.5,30.10,ESE,104,5.0,12.0,69,0.00,,,0.01,meteohub,2013-05-09 21:42:00,
2013-05-09 14:47:00,57.7,48.0,30.11,SSE,162,0.0,10.0,70,0.00,,,0.01,meteohub,2013-05-09 21:47:00,
2013-05-09 14:52:00,58.5,47.5,30.10,ESE,113,8.0,10.0,67,0.00,,,0.01,meteohub,2013-05-09 21:52:00,
2013-05-09 14:57:00,58.3,47.8,30.10,SSE,155,6.0,11.0,68,0.00,,,0.01,meteohub,2013-05-09 21:57:00,
2013-05-09 15:02:00,57.9,47.5,30.10,SE,141,5.0,13.0,68,0.00,,,0.01,meteohub,2013-05-09 22:02:00,
2013-05-09 15:07:00,57.6,47.5,30.10,SE,131,3.0,13.0,69,0.00,,,0.01,meteohub,2013-05-09 22:07:00,
2013-05-09 15:12:00,57.7,47.7,30.10,SE,132,3.0,11.0,69,0.00,,,0.01,meteohub,2013-05-09 22:12:00,
2013-05-09 15:17:00,57.7,47.3,30.09,SE,132,3.0,14.0,68,0.00,,,0.01,meteohub,2013-05-09 22:17:00,
2013-05-09 15:22:00,57.0,46.9,30.09,ESE,118,3.0,14.0,69,0.00,,,0.01,meteohub,2013-05-09 22:22:00,
2013-05-09 15:27:00,56.7,46.6,30.09,SSE,154,4.0,14.0,69,0.00,,,0.01,meteohub,2013-05-09 22:27:00,
2013-05-09 15:32:00,55.9,46.8,30.09,SE,124,2.0,13.0,71,0.00,,,0.01,meteohub,2013-05-09 22:32:00,
2013-05-09 15:42:00,55.6,46.8,30.10,SSE,153,4.0,12.0,72,0.00,,,0.01,meteohub,2013-05-09 22:42:00,
2013-05-09 15:47:00,54.9,46.4,30.10,NE,53,5.0,10.0,73,0.00,,,0.01,meteohub,2013-05-09 22:47:00,
2013-05-09 15:52:00,54.3,46.2,30.09,ESE,107,7.0,13.0,74,0.00,,,0.01,meteohub,2013-05-09 22:52:00,
2013-05-09 15:57:00,54.1,46.4,30.09,SW,220,3.0,13.0,75,0.00,,,0.01,meteohub,2013-05-09 22:57:00,
2013-05-09 16:02:00,54.0,46.2,30.09,ESE,107,2.0,13.0,75,0.00,,,0.01,meteohub,2013-05-09 23:02:00,
2013-05-09 16:07:00,54.0,46.2,30.09,South,169,2.0,11.0,75,0.00,,,0.01,meteohub,2013-05-09 23:07:00,
2013-05-09 16:12:00,54.0,46.6,30.09,SE,131,1.0,11.0,76,0.00,,,0.01,meteohub,2013-05-09 23:12:00,
2013-05-09 16:17:00,54.0,46.6,30.09,SE,128,2.0,11.0,76,0.00,,,0.01,meteohub,2013-05-09 23:17:00,
2013-05-09 16:22:00,54.0,46.6,30.09,SSE,159,2.0,12.0,76,0.00,,,0.01,meteohub,2013-05-09 23:22:00,
2013-05-09 16:32:00,54.0,46.6,30.09,ENE,74,6.0,12.0,76,0.00,,,0.01,meteohub,2013-05-09 23:32:00,
2013-05-09 16:37:00,54.0,46.6,30.09,SW,236,2.0,11.0,76,0.00,,,0.01,meteohub,2013-05-09 23:37:00,
2013-05-09 16:42:00,54.1,46.8,30.09,SE,129,2.0,9.0,76,0.00,,,0.01,meteohub,2013-05-09 23:42:00,
2013-05-09 16:47:00,54.1,46.8,30.09,East,82,6.0,11.0,76,0.00,,,0.01,meteohub,2013-05-09 23:47:00,
2013-05-09 16:57:00,54.3,47.3,30.08,SE,136,4.0,12.0,77,0.00,,,0.01,meteohub,2013-05-09 23:57:00,
2013-05-09 17:02:00,54.3,46.9,30.09,SE,124,5.0,12.0,76,0.00,,,0.01,meteohub,2013-05-10 00:02:00,
2013-05-09 17:07:00,54.3,46.9,30.09,SE,135,4.0,10.0,76,0.00,,,0.01,meteohub,2013-05-10 00:07:00,
2013-05-09 17:12:00,54.3,46.9,30.09,SW,226,1.0,10.0,76,0.00,,,0.01,meteohub,2013-05-10 00:12:00,
2013-05-09 17:17:00,54.1,46.8,30.09,ESE,106,2.0,13.0,76,0.00,,,0.01,meteohub,2013-05-10 00:17:00,
2013-05-09 17:22:00,54.1,47.1,30.09,SE,134,5.0,13.0,77,0.00,,,0.01,meteohub,2013-05-10 00:22:00,
2013-05-09 17:27:00,54.0,48.0,30.09,SE,135,1.0,13.0,80,0.00,,,0.01,meteohub,2013-05-10 00:27:00,
2013-05-09 17:32:00,53.8,47.8,30.09,ESE,121,1.0,9.0,80,0.00,,,0.01,meteohub,2013-05-10 00:32:00,
2013-05-09 17:37:00,53.6,47.8,30.09,ESE,122,2.0,9.0,81,0.00,,,0.01,meteohub,2013-05-10 00:37:00,
2013-05-09 17:42:00,53.4,47.7,30.08,ESE,120,2.0,8.0,81,0.00,,,0.01,meteohub,2013-05-10 00:42:00,
2013-05-09 17:47:00,53.4,48.4,30.08,SSE,165,2.0,6.0,83,0.00,,,0.01,meteohub,2013-05-10 00:47:00,
2013-05-09 17:52:00,53.2,48.2,30.08,ESE,121,1.0,7.0,83,0.00,,,0.01,meteohub,2013-05-10 00:52:00,
2013-05-09 17:57:00,53.4,47.5,30.08,ESE,110,0.0,7.0,80,0.00,,,0.01,meteohub,2013-05-10 00:57:00,
2013-05-09 18:02:00,53.6,47.8,30.08,SE,136,1.0,7.0,81,0.00,,,0.01,meteohub,2013-05-10 01:02:00,
2013-05-09 18:07:00,54.0,46.2,30.08,East,94,2.0,6.0,75,0.00,,,0.01,meteohub,2013-05-10 01:07:00,
2013-05-09 18:12:00,54.1,46.0,30.08,ESE,115,3.0,6.0,74,0.00,,,0.01,meteohub,2013-05-10 01:12:00,
2013-05-09 18:17:00,54.1,45.3,30.08,West,266,0.0,6.0,72,0.00,,,0.01,meteohub,2013-05-10 01:17:00,
2013-05-09 18:22:00,54.1,45.3,30.08,East,98,1.0,5.0,72,0.00,,,0.01,meteohub,2013-05-10 01:22:00,
2013-05-09 18:27:00,54.1,44.6,30.08,SSE,162,1.0,5.0,70,0.00,,,0.01,meteohub,2013-05-10 01:27:00,
2013-05-09 18:32:00,54.0,45.1,30.08,WNW,298,2.0,4.0,72,0.00,,,0.01,meteohub,2013-05-10 01:32:00,
2013-05-09 18:37:00,53.8,45.7,30.09,NNE,15,0.0,4.0,74,0.00,,,0.01,meteohub,2013-05-10 01:37:00,
2013-05-09 18:42:00,53.6,46.6,30.09,ENE,60,0.0,4.0,77,0.00,,,0.01,meteohub,2013-05-10 01:42:00,
2013-05-09 18:47:00,53.6,46.6,30.09,SE,143,0.0,3.0,77,0.00,,,0.01,meteohub,2013-05-10 01:47:00,
2013-05-09 18:52:00,53.4,46.0,30.09,ESE,117,0.0,0.0,76,0.00,,,0.01,meteohub,2013-05-10 01:52:00,
2013-05-09 18:57:00,53.2,46.6,30.10,NE,56,0.0,2.0,78,0.00,,,0.01,meteohub,2013-05-10 01:57:00,
2013-05-09 19:02:00,53.1,45.7,30.10,SSE,151,0.0,2.0,76,0.00,,,0.01,meteohub,2013-05-10 02:02:00,
2013-05-09 19:07:00,52.9,46.2,30.11,North,9,0.0,3.0,78,0.00,,,0.01,meteohub,2013-05-10 02:07:00,
2013-05-09 19:12:00,52.3,46.4,30.11,ESE,113,0.0,3.0,80,0.00,,,0.01,meteohub,2013-05-10 02:12:00,
2013-05-09 19:17:00,51.8,45.5,30.11,ESE,117,1.0,9.0,79,0.00,,,0.01,meteohub,2013-05-10 02:17:00,
2013-05-09 19:22:00,51.4,45.9,30.12,East,86,0.0,9.0,81,0.00,,,0.01,meteohub,2013-05-10 02:22:00,
2013-05-09 19:27:00,51.1,45.1,30.12,NNW,330,4.0,8.0,80,0.00,,,0.01,meteohub,2013-05-10 02:27:00,
2013-05-09 19:32:00,50.9,45.0,30.12,West,267,2.0,6.0,80,0.00,,,0.01,meteohub,2013-05-10 02:32:00,
2013-05-09 19:37:00,50.7,45.1,30.12,ESE,106,0.0,6.0,81,0.00,,,0.01,meteohub,2013-05-10 02:37:00,
2013-05-09 19:42:00,50.7,44.8,30.12,ESE,103,0.0,6.0,80,0.00,,,0.01,meteohub,2013-05-10 02:42:00,
2013-05-09 19:47:00,50.5,45.0,30.12,ESE,103,0.0,4.0,81,0.00,,,0.01,meteohub,2013-05-10 02:47:00,
2013-05-09 19:52:00,50.5,45.0,30.13,WNW,293,1.0,4.0,81,0.00,,,0.01,meteohub,2013-05-10 02:52:00,
2013-05-09 19:57:00,50.4,45.3,30.13,WNW,291,0.0,4.0,83,0.00,,,0.01,meteohub,2013-05-10 02:57:00,
2013-05-09 20:02:00,50.4,45.3,30.12,WNW,291,0.0,2.0,83,0.00,,,0.01,meteohub,2013-05-10 03:02:00,
2013-05-09 20:07:00,50.4,45.3,30.13,South,186,0.0,2.0,83,0.00,,,0.01,meteohub,2013-05-10 03:07:00,
2013-05-09 20:12:00,50.2,45.1,30.12,SE,124,0.0,1.0,83,0.00,,,0.01,meteohub,2013-05-10 03:12:00,
2013-05-09 20:17:00,50.2,45.5,30.13,SE,124,0.0,1.0,84,0.00,,,0.01,meteohub,2013-05-10 03:17:00,
2013-05-09 20:22:00,50.2,45.1,30.13,NW,318,1.0,0.0,83,0.00,,,0.01,meteohub,2013-05-10 03:22:00,
2013-05-09 20:27:00,50.0,45.3,30.13,NW,317,0.0,2.0,84,0.00,,,0.01,meteohub,2013-05-10 03:27:00,
2013-05-09 20:32:00,49.8,45.1,30.13,NW,317,0.0,2.0,84,0.00,,,0.01,meteohub,2013-05-10 03:32:00,
2013-05-09 20:37:00,49.6,45.3,30.13,NW,318,0.0,2.0,85,0.00,,,0.01,meteohub,2013-05-10 03:37:00,
2013-05-09 20:42:00,49.6,45.3,30.13,NW,317,0.0,0.0,85,0.00,,,0.01,meteohub,2013-05-10 03:42:00,
2013-05-09 20:47:00,49.5,45.1,30.13,NW,318,0.0,1.0,85,0.00,,,0.01,meteohub,2013-05-10 03:47:00,
2013-05-09 20:52:00,49.5,45.5,30.13,NW,317,0.0,1.0,86,0.00,,,0.01,meteohub,2013-05-10 03:52:00,
2013-05-09 20:57:00,49.3,45.0,30.13,NW,318,0.0,1.0,85,0.00,,,0.01,meteohub,2013-05-10 03:57:00,
2013-05-09 21:02:00,49.3,45.0,30.13,NW,317,0.0,0.0,85,0.00,,,0.01,meteohub,2013-05-10 04:02:00,
2013-05-09 21:07:00,49.3,45.0,30.13,NW,317,0.0,0.0,85,0.00,,,0.01,meteohub,2013-05-10 04:07:00,
2013-05-09 21:12:00,48.9,44.6,30.14,NW,319,0.0,0.0,85,0.00,,,0.01,meteohub,2013-05-10 04:12:00,
2013-05-09 21:17:00,48.9,44.6,30.14,NW,319,0.0,1.0,85,0.00,,,0.01,meteohub,2013-05-10 04:17:00,
2013-05-09 21:22:00,48.9,45.0,30.14,NW,319,0.0,1.0,86,0.00,,,0.01,meteohub,2013-05-10 04:22:00,
2013-05-09 21:27:00,48.7,44.8,30.14,NW,319,0.0,1.0,86,0.00,,,0.01,meteohub,2013-05-10 04:27:00,
2013-05-09 21:32:00,48.6,44.8,30.14,NW,319,0.0,1.0,87,0.00,,,0.01,meteohub,2013-05-10 04:32:00,
2013-05-09 21:37:00,48.4,44.8,30.14,NW,319,0.0,1.0,87,0.00,,,0.01,meteohub,2013-05-10 04:37:00,
2013-05-09 21:42:00,48.2,44.6,30.14,NW,324,0.0,1.0,87,0.00,,,0.01,meteohub,2013-05-10 04:42:00,
2013-05-09 21:47:00,48.0,44.4,30.14,North,8,0.0,1.0,87,0.00,,,0.01,meteohub,2013-05-10 04:47:00,
2013-05-09 21:52:00,48.0,44.4,30.14,NNE,30,0.0,1.0,87,0.00,,,0.01,meteohub,2013-05-10 04:52:00,
2013-05-09 21:57:00,48.0,44.4,30.14,NNE,32,0.0,0.0,87,0.00,,,0.01,meteohub,2013-05-10 04:57:00,
2013-05-09 22:02:00,48.0,44.4,30.14,NNE,33,0.0,0.0,87,0.00,,,0.01,meteohub,2013-05-10 05:02:00,
2013-05-09 22:07:00,47.8,44.2,30.14,NNE,32,0.0,0.0,87,0.00,,,0.01,meteohub,2013-05-10 05:07:00,
2013-05-09 22:12:00,47.7,44.1,30.14,NNE,32,0.0,0.0,87,0.00,,,0.01,meteohub,2013-05-10 05:12:00,
2013-05-09 22:17:00,47.7,44.1,30.14,NNE,32,0.0,0.0,87,0.00,,,0.01,meteohub,2013-05-10 05:17:00,
2013-05-09 22:22:00,47.8,44.2,30.14,NNE,33,0.0,0.0,87,0.00,,,0.01,meteohub,2013-05-10 05:22:00,
2013-05-09 22:27:00,47.8,44.2,30.14,NNE,33,0.0,0.0,87,0.00,,,0.01,meteohub,2013-05-10 05:27:00,
2013-05-09 22:32:00,48.0,44.1,30.14,NNE,32,0.0,0.0,86,0.00,,,0.01,meteohub,2013-05-10 05:32:00,
2013-05-09 22:37:00,48.4,44.4,30.14,NNE,32,0.0,0.0,86,0.00,,,0.01,meteohub,2013-05-10 05:37:00,
2013-05-09 22:42:00,48.4,44.1,30.14,NNE,32,0.0,0.0,85,0.00,,,0.01,meteohub,2013-05-10 05:42:00,
2013-05-09 22:47:00,48.4,44.4,30.14,NNE,32,0.0,0.0,86,0.00,,,0.01,meteohub,2013-05-10 05:47:00,
2013-05-09 22:52:00,48.4,44.4,30.14,NNE,33,0.0,0.0,86,0.00,,,0.01,meteohub,2013-05-10 05:52:00,
2013-05-09 22:57:00,48.2,44.2,30.14,NNE,32,0.0,0.0,86,0.00,,,0.01,meteohub,2013-05-10 05:57:00,
2013-05-09 23:02:00,48.2,44.2,30.14,NNE,32,0.0,0.0,86,0.00,,,0.01,meteohub,2013-05-10 06:02:00,
2013-05-09 23:07:00,48.0,44.1,30.14,NNE,32,0.0,0.0,86,0.00,,,0.01,meteohub,2013-05-10 06:07:00,
2013-05-09 23:12:00,48.0,43.7,30.14,West,274,0.0,0.0,85,0.00,,,0.01,meteohub,2013-05-10 06:12:00,
2013-05-09 23:17:00,48.0,43.3,30.14,NW,315,0.0,0.0,84,0.00,,,0.01,meteohub,2013-05-10 06:17:00,
2013-05-09 23:27:00,48.0,43.3,30.14,NW,318,0.0,0.0,84,0.00,,,0.01,meteohub,2013-05-10 06:27:00,
2013-05-09 23:32:00,48.0,43.2,30.14,NNW,333,0.0,0.0,83,0.00,,,0.01,meteohub,2013-05-10 06:32:00,
2013-05-09 23:37:00,48.0,43.2,30.14,NNE,27,0.0,0.0,83,0.00,,,0.01,meteohub,2013-05-10 06:37:00,
2013-05-09 23:42:00,48.0,43.2,30.14,NNE,24,0.0,0.0,83,0.00,,,0.01,meteohub,2013-05-10 06:42:00,
2013-05-09 23:47:00,47.8,43.0,30.14,NNE,24,0.0,0.0,83,0.00,,,0.01,meteohub,2013-05-10 06:47:00,
2013-05-09 23:52:00,47.8,43.2,30.14,NNE,24,0.0,0.0,84,0.00,,,0.01,meteohub,2013-05-10 06:52:00,
2013-05-09 23:57:00,47.7,43.0,30.14,NNE,24,0.0,0.0,84,0.00,,,0.01,meteohub,2013-05-10 06:57:00,